Location: Eastchurch
(51.4000°N, 0.8667°E)
Time: 03:48:39
(UTC+00:00)

SPOT 1/Viking Rocket - Pass Details

Date: 22 April 2026
Orbit: 772 x 790 km, 98.2° (Epoch: 11 May)

Event Time Altitude Azimuth Distance (km) Brightness Sun altitude
Rises 19:33:43 0° 225° (SW) 3,276 7.0 -5.0°
Reaches altitude 10° 19:37:52 10° 257° (WSW) 2,352 6.9 -5.5°
Maximum altitude 19:39:34 12° 277° (W) 2,246 7.2 -5.8°
Drops below altitude 10° 19:41:18 10° 296° (WNW) 2,355 7.9 -6.0°
Sets 19:45:29 0° 329° (NNW) 3,287 8.0 -6.6°
